Time,TemperatureF,DewpointF,PressureIn,WindDirection,WindDirectionDegrees,WindSpeedMPH,WindSpeedGustMPH,Humidity,HourlyPrecipIn,Conditions,Clouds,dailyrainin,SolarRadiationWatts/m^2,SoftwareType,DateUTC
2013-02-10 00:21:00,29.0,27.0,-100.00,West,260,2.0,4.0,93,0.00,,,0.06,0.000000,,2013-02-10 09:21:00,
2013-02-10 00:31:00,29.0,27.0,-100.00,West,260,2.0,4.0,93,0.00,,,0.06,0.000000,,2013-02-10 09:31:00,
2013-02-10 00:41:00,29.0,27.0,-100.00,West,260,2.0,4.0,93,0.00,,,0.06,0.000000,,2013-02-10 09:41:00,
2013-02-10 00:51:00,29.0,27.0,-100.00,West,260,2.0,4.0,93,0.00,,,0.06,0.000000,,2013-02-10 09:51:00,
2013-02-10 01:11:00,30.0,28.0,-100.00,NW,326,3.0,5.0,93,-99.99,,,-99.99,,,2013-02-10 10:11:00,
2013-02-10 01:21:00,30.0,28.0,-100.00,NW,326,3.0,6.0,93,0.00,,,0.06,0.000000,,2013-02-10 10:21:00,
2013-02-10 01:31:00,30.0,28.0,-100.00,NW,326,3.0,6.0,93,0.00,,,0.06,0.000000,,2013-02-10 10:31:00,
2013-02-10 01:41:00,30.0,28.0,-100.00,NW,326,3.0,6.0,93,0.00,,,0.06,0.000000,,2013-02-10 10:41:00,
2013-02-10 01:51:00,30.0,28.0,-100.00,NW,326,3.0,6.0,93,0.00,,,0.06,0.000000,,2013-02-10 10:51:00,
2013-02-10 02:21:00,30.0,28.0,-100.00,East,94,3.0,7.0,92,0.00,,,0.06,0.000000,,2013-02-10 11:21:00,
2013-02-10 02:32:00,30.0,28.0,-100.00,East,94,3.0,7.0,92,0.00,,,0.06,0.000000,,2013-02-10 11:32:00,
2013-02-10 02:42:00,30.0,28.0,-100.00,East,94,3.0,7.0,92,0.00,,,0.06,0.000000,,2013-02-10 11:42:00,
2013-02-10 02:52:00,30.0,28.0,-100.00,East,94,3.0,7.0,92,0.00,,,0.06,0.000000,,2013-02-10 11:52:00,
2013-02-10 03:21:00,31.0,29.0,-100.00,SSE,148,2.0,5.0,93,-99.99,,,-99.99,,,2013-02-10 12:21:00,
2013-02-10 03:32:00,31.0,29.0,-100.00,SSE,148,2.0,5.0,93,-99.99,,,-99.99,,,2013-02-10 12:32:00,
2013-02-10 03:41:00,31.0,29.0,-100.00,SSE,148,2.0,5.0,93,-99.99,,,-99.99,,,2013-02-10 12:41:00,
2013-02-10 03:52:00,31.0,29.0,-100.00,SSE,148,2.0,5.0,93,-99.99,,,-99.99,,,2013-02-10 12:52:00,
2013-02-10 05:21:00,30.0,28.0,-100.00,SSW,199,2.0,4.0,94,-99.99,,,-99.99,,,2013-02-10 14:21:00,
2013-02-10 05:31:00,30.0,28.0,-100.00,SSW,199,2.0,4.0,94,-99.99,,,-99.99,,,2013-02-10 14:31:00,
2013-02-10 05:41:00,30.0,28.0,-100.00,SSW,199,2.0,4.0,94,-99.99,,,-99.99,,,2013-02-10 14:41:00,
2013-02-10 05:52:00,30.0,28.0,-100.00,SSW,199,2.0,4.0,94,-99.99,,,-99.99,,,2013-02-10 14:52:00,
2013-02-10 06:01:00,31.0,29.0,-100.00,WSW,250,3.0,7.0,93,-99.99,,,-99.99,,,2013-02-10 15:01:00,
2013-02-10 06:21:00,31.0,29.0,-100.00,WSW,250,3.0,7.0,93,-99.99,,,0.06,0.000000,,2013-02-10 15:21:00,
2013-02-10 06:31:00,31.0,29.0,-100.00,WSW,250,3.0,7.0,93,-99.99,,,0.06,0.000000,,2013-02-10 15:31:00,
2013-02-10 06:41:00,31.0,29.0,-100.00,WSW,250,3.0,7.0,93,-99.99,,,0.06,0.000000,,2013-02-10 15:41:00,
2013-02-10 06:51:00,31.0,29.0,-100.00,WSW,250,3.0,7.0,93,-99.99,,,0.06,0.000000,,2013-02-10 15:51:00,
2013-02-10 07:11:00,35.0,33.0,-100.00,ENE,63,4.0,10.0,92,-99.99,,,-99.99,,,2013-02-10 16:11:00,
2013-02-10 07:21:00,35.0,33.0,-100.00,ENE,63,5.0,12.0,92,0.00,,,0.06,0.000000,,2013-02-10 16:21:00,
2013-02-10 07:32:00,35.0,33.0,-100.00,ENE,63,5.0,12.0,92,0.00,,,0.06,0.000000,,2013-02-10 16:32:00,
2013-02-10 07:42:00,35.0,33.0,-100.00,ENE,63,5.0,12.0,92,0.00,,,0.06,0.000000,,2013-02-10 16:42:00,
2013-02-10 07:51:00,35.0,33.0,-100.00,ENE,63,5.0,12.0,92,0.00,,,0.06,0.000000,,2013-02-10 16:51:00,
2013-02-10 08:21:00,40.0,31.0,-100.00,ESE,103,6.0,13.0,69,0.00,,,0.06,0.000000,,2013-02-10 17:21:00,
2013-02-10 08:32:00,40.0,31.0,-100.00,ESE,103,6.0,13.0,69,0.00,,,0.06,0.000000,,2013-02-10 17:32:00,
2013-02-10 08:42:00,40.0,31.0,-100.00,ESE,103,6.0,13.0,69,0.00,,,0.06,0.000000,,2013-02-10 17:42:00,
2013-02-10 08:52:00,40.0,31.0,-100.00,ESE,103,6.0,13.0,69,0.00,,,0.06,0.000000,,2013-02-10 17:52:00,
2013-02-10 09:11:00,36.0,33.0,-100.00,South,187,6.0,15.0,90,-99.99,,,-99.99,,,2013-02-10 18:11:00,
2013-02-10 09:21:00,36.0,33.0,-100.00,South,187,7.0,17.0,90,0.01,,,0.07,0.000000,,2013-02-10 18:21:00,
2013-02-10 09:31:00,36.0,33.0,-100.00,South,187,7.0,17.0,90,0.01,,,0.07,0.000000,,2013-02-10 18:31:00,
2013-02-10 09:41:00,36.0,33.0,-100.00,South,187,7.0,17.0,90,0.01,,,0.07,0.000000,,2013-02-10 18:41:00,
2013-02-10 09:51:00,36.0,33.0,-100.00,South,187,7.0,17.0,90,0.01,,,0.07,0.000000,,2013-02-10 18:51:00,
2013-02-10 10:11:00,35.0,33.0,-100.00,South,169,6.0,19.0,93,-99.99,,,-99.99,,,2013-02-10 19:11:00,
2013-02-10 10:21:00,35.0,33.0,-100.00,South,169,7.0,22.0,93,0.04,,,0.11,4.000000,,2013-02-10 19:21:00,
2013-02-10 10:32:00,35.0,33.0,-100.00,South,169,7.0,22.0,93,0.04,,,0.11,4.000000,,2013-02-10 19:32:00,
2013-02-10 10:42:00,35.0,33.0,-100.00,South,169,7.0,22.0,93,0.04,,,0.11,4.000000,,2013-02-10 19:42:00,
2013-02-10 10:51:00,35.0,33.0,-100.00,South,169,7.0,22.0,93,0.04,,,0.11,4.000000,,2013-02-10 19:51:00,
2013-02-10 11:21:00,36.0,31.0,-100.00,SSE,147,5.0,16.0,82,0.04,,,0.15,25.000000,,2013-02-10 20:21:00,
2013-02-10 11:32:00,36.0,31.0,-100.00,SSE,147,5.0,16.0,82,0.04,,,0.15,25.000000,,2013-02-10 20:32:00,
2013-02-10 11:42:00,36.0,31.0,-100.00,SSE,147,5.0,16.0,82,0.04,,,0.15,25.000000,,2013-02-10 20:42:00,
2013-02-10 11:52:00,36.0,31.0,-100.00,SSE,147,5.0,16.0,82,0.04,,,0.15,25.000000,,2013-02-10 20:52:00,
2013-02-10 12:21:00,38.0,30.0,-100.00,South,179,2.0,10.0,74,0.03,,,-99.99,62.000000,,2013-02-10 21:21:00,
2013-02-10 12:32:00,38.0,30.0,-100.00,South,179,2.0,10.0,74,0.03,,,-99.99,62.000000,,2013-02-10 21:32:00,
2013-02-10 12:42:00,38.0,30.0,-100.00,South,179,2.0,10.0,74,0.03,,,-99.99,62.000000,,2013-02-10 21:42:00,
2013-02-10 12:51:00,38.0,30.0,-100.00,South,179,2.0,10.0,74,0.03,,,-99.99,62.000000,,2013-02-10 21:51:00,
2013-02-10 13:11:00,39.0,30.0,-100.00,SSW,206,3.0,8.0,70,-99.99,,,-99.99,,,2013-02-10 22:11:00,
2013-02-10 13:21:00,39.0,30.0,-100.00,SSW,206,3.0,9.0,70,0.05,,,0.22,79.000000,,2013-02-10 22:21:00,
2013-02-10 13:32:00,39.0,30.0,-100.00,SSW,206,3.0,9.0,70,0.05,,,0.22,79.000000,,2013-02-10 22:32:00,
2013-02-10 13:42:00,39.0,30.0,-100.00,SSW,206,3.0,9.0,70,0.05,,,0.22,79.000000,,2013-02-10 22:42:00,
2013-02-10 13:52:00,39.0,30.0,-100.00,SSW,206,3.0,9.0,70,0.05,,,0.22,79.000000,,2013-02-10 22:52:00,
2013-02-10 14:21:00,39.0,33.0,-100.00,SW,235,3.0,8.0,78,0.03,,,-99.99,63.000000,,2013-02-10 23:21:00,
2013-02-10 14:32:00,39.0,33.0,-100.00,SW,235,3.0,8.0,78,0.03,,,-99.99,63.000000,,2013-02-10 23:32:00,
2013-02-10 14:41:00,39.0,33.0,-100.00,SW,235,3.0,8.0,78,0.03,,,-99.99,63.000000,,2013-02-10 23:41:00,
2013-02-10 14:52:00,39.0,33.0,-100.00,SW,235,3.0,8.0,78,0.03,,,-99.99,63.000000,,2013-02-10 23:52:00,
2013-02-10 15:11:00,39.0,32.0,-100.00,NE,45,3.0,5.0,77,-99.99,,,-99.99,,,2013-02-11 00:11:00,
2013-02-10 15:22:00,39.0,32.0,-100.00,NE,45,3.0,6.0,77,0.04,,,0.25,78.000000,,2013-02-11 00:22:00,
2013-02-10 15:32:00,39.0,32.0,-100.00,NE,45,3.0,6.0,77,0.04,,,0.25,78.000000,,2013-02-11 00:32:00,
2013-02-10 15:41:00,39.0,32.0,-100.00,NE,45,3.0,6.0,77,0.04,,,0.25,78.000000,,2013-02-11 00:41:00,
2013-02-10 15:51:00,39.0,32.0,-100.00,NE,45,3.0,6.0,77,0.04,,,0.25,78.000000,,2013-02-11 00:51:00,
2013-02-10 16:21:00,37.0,32.0,-100.00,West,280,3.0,8.0,83,0.03,,,0.28,39.000000,,2013-02-11 01:21:00,
2013-02-10 16:32:00,37.0,32.0,-100.00,West,280,3.0,8.0,83,0.03,,,0.28,39.000000,,2013-02-11 01:32:00,
2013-02-10 16:41:00,37.0,32.0,-100.00,West,280,3.0,8.0,83,0.03,,,0.28,39.000000,,2013-02-11 01:41:00,
2013-02-10 16:52:00,37.0,32.0,-100.00,West,280,3.0,8.0,83,0.03,,,0.28,39.000000,,2013-02-11 01:52:00,
2013-02-10 17:21:00,36.0,30.0,-100.00,SW,232,3.0,9.0,78,0.02,,,0.29,24.000000,,2013-02-11 02:21:00,
2013-02-10 17:31:00,36.0,30.0,-100.00,SW,232,3.0,9.0,78,0.02,,,0.29,24.000000,,2013-02-11 02:31:00,
2013-02-10 17:41:00,36.0,30.0,-100.00,SW,232,3.0,9.0,78,0.02,,,0.29,24.000000,,2013-02-11 02:41:00,
2013-02-10 17:52:00,36.0,30.0,-100.00,SW,232,3.0,9.0,78,0.02,,,0.29,24.000000,,2013-02-11 02:52:00,
2013-02-10 18:11:00,33.0,30.0,-100.00,NNE,16,2.0,5.0,89,-99.99,,,-99.99,,,2013-02-11 03:11:00,
2013-02-10 18:21:00,33.0,30.0,-100.00,NNE,16,2.0,6.0,89,0.02,,,0.31,4.000000,,2013-02-11 03:21:00,
2013-02-10 18:31:00,33.0,30.0,-100.00,NNE,16,2.0,6.0,89,0.02,,,0.31,4.000000,,2013-02-11 03:31:00,
2013-02-10 18:41:00,33.0,30.0,-100.00,NNE,16,2.0,6.0,89,0.02,,,0.31,4.000000,,2013-02-11 03:41:00,
2013-02-10 18:51:00,33.0,30.0,-100.00,NNE,16,2.0,6.0,89,0.02,,,0.31,4.000000,,2013-02-11 03:51:00,
2013-02-10 19:21:00,33.0,31.0,-100.00,NE,35,2.0,4.0,92,0.02,,,0.33,0.000000,,2013-02-11 04:21:00,
2013-02-10 19:31:00,33.0,31.0,-100.00,NE,35,2.0,4.0,92,0.02,,,0.33,0.000000,,2013-02-11 04:31:00,
2013-02-10 19:41:00,33.0,31.0,-100.00,NE,35,2.0,4.0,92,0.02,,,0.33,0.000000,,2013-02-11 04:41:00,
2013-02-10 19:51:00,33.0,31.0,-100.00,NE,35,2.0,4.0,92,0.02,,,0.33,0.000000,,2013-02-11 04:51:00,
2013-02-10 20:11:00,32.0,30.0,-100.00,WSW,242,2.0,4.0,94,-99.99,,,-99.99,,,2013-02-11 05:11:00,
2013-02-10 20:22:00,32.0,30.0,-100.00,WSW,242,2.0,5.0,94,0.00,,,0.33,0.000000,,2013-02-11 05:22:00,
2013-02-10 20:31:00,32.0,30.0,-100.00,WSW,242,2.0,5.0,94,0.00,,,0.33,0.000000,,2013-02-11 05:31:00,
2013-02-10 20:41:00,32.0,30.0,-100.00,WSW,242,2.0,5.0,94,0.00,,,0.33,0.000000,,2013-02-11 05:41:00,
2013-02-10 20:52:00,32.0,30.0,-100.00,WSW,242,2.0,5.0,94,0.00,,,0.33,0.000000,,2013-02-11 05:52:00,
2013-02-10 21:21:00,33.0,32.0,-100.00,SSE,168,3.0,10.0,95,0.00,,,0.33,0.000000,,2013-02-11 06:21:00,
2013-02-10 21:32:00,33.0,32.0,-100.00,SSE,168,3.0,10.0,95,0.00,,,0.33,0.000000,,2013-02-11 06:32:00,
2013-02-10 21:42:00,33.0,32.0,-100.00,SSE,168,3.0,10.0,95,0.00,,,0.33,0.000000,,2013-02-11 06:42:00,
2013-02-10 21:51:00,33.0,32.0,-100.00,SSE,168,3.0,10.0,95,0.00,,,0.33,0.000000,,2013-02-11 06:51:00,
2013-02-10 22:11:00,32.0,31.0,-100.00,SSW,205,3.0,10.0,95,-99.99,,,-99.99,,,2013-02-11 07:11:00,
2013-02-10 22:21:00,32.0,31.0,-100.00,SSW,205,3.0,11.0,95,0.00,,,0.33,0.000000,,2013-02-11 07:21:00,
2013-02-10 22:32:00,32.0,31.0,-100.00,SSW,205,3.0,11.0,95,0.00,,,0.33,0.000000,,2013-02-11 07:32:00,
2013-02-10 22:41:00,32.0,31.0,-100.00,SSW,205,3.0,11.0,95,0.00,,,0.33,0.000000,,2013-02-11 07:41:00,
2013-02-10 22:51:00,32.0,31.0,-100.00,SSW,205,3.0,11.0,95,0.00,,,0.33,0.000000,,2013-02-11 07:51:00,
2013-02-10 23:11:00,31.0,30.0,-100.00,South,173,2.0,4.0,96,-99.99,,,-99.99,,,2013-02-11 08:11:00,
2013-02-10 23:21:00,31.0,30.0,-100.00,South,173,2.0,5.0,96,0.00,,,0.33,0.000000,,2013-02-11 08:21:00,
2013-02-10 23:31:00,31.0,30.0,-100.00,South,173,2.0,5.0,96,0.00,,,0.33,0.000000,,2013-02-11 08:31:00,
2013-02-10 23:42:00,31.0,30.0,-100.00,South,173,2.0,5.0,96,0.00,,,0.33,0.000000,,2013-02-11 08:42:00,
2013-02-10 23:51:00,31.0,30.0,-100.00,South,173,2.0,5.0,96,0.00,,,0.33,0.000000,,2013-02-11 08:51:00,